Location: Moy Burn
(57.3833°N, 4.0667°W)
Time: 12:16:00
(UTC+00:00)

Cosmos 2322 Rocket - Pass Details

Date: 08 August 2020
Orbit: 831 x 852 km, 71.0° (Epoch: 21 September)

Event Time Altitude Azimuth Distance (km) Brightness Sun altitude
Rises 21:52:41 0° 323° (NW) 3,416 7.7 -10.6°
Reaches altitude 10° 21:55:09 10° 324° (NW) 2,481 6.3 -10.8°
Maximum altitude 22:00:52 81° 53° (NE) 867 2.3 -11.2°
Enters shadow 22:05:37 15° 140° (SE) 2,121 3.6 -11.6°
